COSMOS 1251

Satellite information

Favourite Embed

Satellite Type and Status

PAYLOADIN ORBIT

Key statistics

Satellite COSMOS 1251 at a glance.

Uptime

16359

Days in orbit

Revolutions

≈ 12.6

Per day

Orbit

LEO

Low Earth Orbit

Inclination

74.0

Latest

Satellite identification and parameters

Extended collection of information and parameters for COSMOS 1251.

Object identification

Identified? True

Debris? False

Object name: COSMOS 1251

International designator: 1981-022B

Object number (NORAD): 12321

Object ID (CCSDS): 12321

Country: COMMONWEALTH OF INDEPENDENT STATES (CIS)

Current information (Y/N): Y

RCS size: MEDIUM

Orbital parameters

Period: 114.605 minutes

Inclination: 74.0307 deg

SMA: 7815.617 km

Apoapsis: 1471.495 km

Periapsis: 1403.47 km

RAAN: 307.6511 deg

Eccentricy: 0.0043519

Argument of periapsis: 65.2527 deg

Mean anomaly: 45.7104 deg

Mean motion: 12.56486494 rev/day

Mean motion (dot): -0.00000018 rev/day2

B* drag term: -0.00000971827 1/REarth

Two-line elements (TLE)

Creation date: Dec. 18, 2025, 8:02 p.m.

Reference frame: TEME

Reference center: EARTH

Epoch: Dec. 18, 2025, 3:09 p.m. UTC

TLE line 0: 0 COSMOS 1251

TLE line 1: 1 12321U 81022B 25352.63192228 -.00000018 00000-0 -97183-5 0 9996

TLE line 2: 2 12321 74.0307 307.6511 0043519 65.2527 45.7104 12.56486494 54249

Live tracking on map

Real-time ground track for satellite COSMOS 1251.

In-orbit conjunctions

There are no conjunctions computed for COSMOS 1251, at the moment. Check back to stay up to date, as we update our databases every day.

Go to all conjunctions

Associated space launch

Military communications satellites

COSMOS 1251 was lifted into orbit during the mission ‘Kosmos-3M | Strela-1M 209-216’, on board a Kosmos-3M space rocket.

The launch took place on March 6, 1981, 11:31 a.m. from 132/2.

For more information about the launch, click the button.

Launch to space Kosmos-3M | Strela-1M 209-216
Kosmos-3M | Strela-1M 209-216

Agency: N/A

Status: Launch Successful

Launch date: March 6, 1981, 11:31 a.m. UTC

Rocket: Kosmos-3M

Launch pad: 132/2

Location: Plesetsk Cosmodrome, Russian Federation

...

Latest news about this satellite

There are no fresh news available about this satellite. Check back as we update our databases every day.


Newsletter sign-up

Weekly statistics, charts and insights to help you stay on top of the space industry.